Location: Colonia Mina de C?rbuni
(46.1667°N, 22.7167°E)
Time: 09:16:16
(UTC+00:00)

Vanguard 2 - Pass Details

Date: 20 April 2024
Orbit: 552 x 2914 km, 32.9° (Epoch: 24 May)

Event Time Altitude Azimuth Distance (km) Brightness Sun altitude
Rises 07:40:07 0° 273° (W) 6,578 11.9 40.6°
Reaches altitude 10° 07:49:13 10° 247° (WSW) 5,107 11.5 41.9°
Maximum altitude 07:53:10 12° 231° (SW) 4,701 11.5 42.5°
Drops below altitude 10° 07:56:46 10° 215° (SW) 4,546 11.6 43.0°
Sets 08:03:25 0° 186° (S) 4,920 12.0 44.0°
